Marion Regional, IL

9:05 AM CST on January 21, 2018 (GMT -0600)
Williamson County Regional

Weather History for KMWA - January, 2013

Change the Weather History Date:

Tuesday, January 29, 2013

  Actual Average Record
Temperature  
Mean Temperature 61 °F -  
Max Temperature 69 °F 41 °F 71 °F (2002)
Min Temperature 53 °F 21 °F -5 °F (1977)
Degree Days  
Heating Degree Days 4    
Growing Degree Days 11 (Base 50)    
Moisture  
Dew Point 58 °F    
Average Humidity 85    
Maximum Humidity 100    
Minimum Humidity 64    
Precipitation  
Precipitation 1.01 in - - ()
Sea Level Pressure  
Sea Level Pressure 29.74 in    
Wind  
Wind Speed 18 mph (South)    
Max Wind Speed 32 mph    
Max Gust Speed 50 mph    
Visibility 10 miles    
Events Rain , Thunderstorm    
Averages and records for this station are not official NWS values.
T = Trace of Precipitation, MM = Missing Value Source: NWS Daily Summary

Daily Weather History Graph

Daily Weather History Graph

Search for Another Location

Airport or City:

Trip Planner

Search our weather history database for the weather conditions in past years. The results will help you decide how hot, cold, wet, or windy it might be!

Date:

Astronomy

Jan. 29, 2013 Rise Set
Actual Time 7:02 AM CST 5:16 PM CST
Civil Twilight 6:34 AM CST 5:44 PM CST
Nautical Twilight 6:02 AM CST 6:16 PM CST
Astronomical Twilight 5:31 AM CST 6:46 PM CST
Moon 8:08 PM CST (1/29) 8:02 AM CST (1/29)
Length of Visible Light 11h 10m
Length of Day
10h 14m
Waning Gibbous, 93% of the Moon is Illuminated
Jan 29
Waning Gibbous
Feb 3
Last Quarter
Feb 10
New
Feb 17
First Quarter
Feb 25
Full

Hourly Weather History & Observations

Time (CST) Temp. Dew Point Humidity Pressure Visibility Wind Dir Wind Speed Gust Speed Precip Events Conditions
12:15 AM 60.8 °F 57.2 °F 88% 30.00 in 10.0 mi SSW 13.8 mph - N/A   Clear
12:35 AM 60.8 °F 57.2 °F 88% 29.98 in 10.0 mi South 16.1 mph - N/A   Mostly Cloudy
12:55 AM 60.8 °F 57.2 °F 88% 29.96 in 10.0 mi South 19.6 mph 24.2 mph N/A   Overcast
1:15 AM 60.8 °F 57.2 °F 88% 29.96 in 10.0 mi South 18.4 mph 26.5 mph N/A   Overcast
1:35 AM 60.8 °F 57.2 °F 88% 29.95 in 10.0 mi South 17.3 mph 25.3 mph N/A   Overcast
1:55 AM 60.8 °F 55.4 °F 82% 29.95 in 10.0 mi South 20.7 mph 24.2 mph N/A   Overcast
2:15 AM 60.8 °F 57.2 °F 88% 29.94 in 10.0 mi South 20.7 mph 27.6 mph N/A   Overcast
2:35 AM 60.8 °F 57.2 °F 88% 29.93 in 10.0 mi South 19.6 mph 26.5 mph N/A   Overcast
2:55 AM 60.8 °F 57.2 °F 88% 29.93 in 10.0 mi South 19.6 mph 24.2 mph N/A   Overcast
3:15 AM 60.8 °F 57.2 °F 88% 29.93 in 10.0 mi SSW 20.7 mph 27.6 mph N/A   Overcast
3:35 AM 60.8 °F 57.2 °F 88% 29.93 in 10.0 mi SSW 17.3 mph - N/A   Overcast
3:55 AM 60.8 °F 57.2 °F 88% 29.93 in 10.0 mi SSW 23.0 mph 27.6 mph N/A   Overcast
4:15 AM 60.8 °F 57.2 °F 88% 29.93 in 10.0 mi SSW 19.6 mph 25.3 mph N/A   Overcast
4:35 AM 60.8 °F 57.2 °F 88% 29.93 in 10.0 mi South 19.6 mph 25.3 mph N/A   Overcast
4:55 AM 60.8 °F 57.2 °F 88% 29.92 in 10.0 mi SSW 19.6 mph 26.5 mph N/A   Overcast
5:15 AM 60.8 °F 59.0 °F 94% 29.91 in 10.0 mi South 17.3 mph 25.3 mph N/A   Overcast
5:35 AM 60.8 °F 59.0 °F 94% 29.91 in 10.0 mi South 19.6 mph 27.6 mph N/A   Overcast
6:53 AM 62.6 °F 59.0 °F 88% 29.90 in 10.0 mi South 13.8 mph 26.5 mph N/A   Overcast
7:53 AM 62.6 °F 59.0 °F 88% 29.89 in 10.0 mi South 15.0 mph 23.0 mph N/A   Overcast
8:53 AM 62.6 °F 60.8 °F 94% 29.87 in 10.0 mi South 15.0 mph 25.3 mph N/A   Overcast
9:53 AM 64.4 °F 60.8 °F 88% 29.88 in 7.0 mi South 13.8 mph 25.3 mph N/A   Overcast
10:53 AM 64.4 °F 60.8 °F 88% 29.84 in 12.0 mi South 15.0 mph 28.8 mph N/A   Overcast
11:52 AM 66.2 °F 60.8 °F 83% 29.80 in 15.0 mi South 17.3 mph 28.8 mph N/A   Overcast
12:52 PM 68.0 °F 60.8 °F 78% 29.74 in 15.0 mi South 17.3 mph 25.3 mph N/A   Mostly Cloudy
1:53 PM 69.8 °F 59.0 °F 68% 29.71 in 15.0 mi South 17.3 mph 25.3 mph N/A   Mostly Cloudy
2:55 PM 69.8 °F 57.2 °F 64% 29.67 in 15.0 mi SSW 23.0 mph 31.1 mph N/A   Mostly Cloudy
3:55 PM 69.8 °F 57.2 °F 64% 29.66 in 15.0 mi South 17.3 mph 31.1 mph N/A   Overcast
4:55 PM 69.8 °F 57.2 °F 64% 29.62 in 15.0 mi South 17.3 mph 27.6 mph N/A   Mostly Cloudy
5:55 PM 66.2 °F 59.0 °F 78% 29.59 in 10.0 mi South 19.6 mph 28.8 mph N/A   Overcast
6:55 PM 64.4 °F 59.0 °F 83% 29.56 in 10.0 mi SSE 17.3 mph 26.5 mph N/A Thunderstorm Unknown
7:15 PM 64.4 °F 59.0 °F 83% 29.54 in 10.0 mi SSE 20.7 mph 29.9 mph N/A   Overcast
7:35 PM 66.2 °F 59.0 °F 78% 29.52 in 10.0 mi SSE 19.6 mph 28.8 mph N/A   Overcast
7:55 PM 66.2 °F 60.8 °F 83% 29.50 in 10.0 mi SSE 18.4 mph 26.5 mph N/A Thunderstorm Overcast
8:15 PM 68.0 °F 60.8 °F 78% 29.48 in 10.0 mi SSE 21.9 mph 33.4 mph N/A   Overcast
8:35 PM 68.0 °F 60.8 °F 78% 29.46 in 10.0 mi SSE 20.7 mph 29.9 mph N/A   Overcast
8:55 PM 68.0 °F 59.0 °F 73% 29.44 in 10.0 mi SSE 21.9 mph 32.2 mph N/A   Overcast
9:15 PM 68.0 °F 59.0 °F 73% 29.42 in 10.0 mi South 24.2 mph 36.8 mph N/A   Overcast
9:35 PM 69.8 °F 59.0 °F 68% 29.41 in 10.0 mi South 32.2 mph 40.3 mph N/A Thunderstorm Overcast
9:55 PM 60.8 °F 53.6 °F 77% 29.49 in 4.0 mi NW 24.2 mph 49.5 mph 0.03 in Rain , Thunderstorm Heavy Thunderstorms and Rain
10:15 PM 55.4 °F 53.6 °F 94% 29.54 in 1.8 mi NW 17.3 mph 32.2 mph 0.50 in Rain Heavy Rain
10:35 PM 53.6 °F 53.6 °F 100% 29.57 in 4.0 mi NW 11.5 mph 18.4 mph 0.66 in Rain , Thunderstorm Heavy Thunderstorms and Rain
10:55 PM 53.6 °F 53.6 °F 100% 29.57 in 7.0 mi NW 6.9 mph - 0.72 in Rain Rain
11:15 PM 53.6 °F 53.6 °F 100% 29.56 in 7.0 mi North 8.1 mph - 0.05 in Rain Heavy Rain
11:35 PM 53.6 °F 51.8 °F 94% 29.52 in 7.0 mi NNE 8.1 mph - 0.16 in Rain Heavy Rain
11:55 PM 53.6 °F 51.8 °F 94% 29.53 in 5.0 mi North 11.5 mph - 0.26 in Rain Heavy Rain